Location: Ballard
(38.3614°N, 94.1431°W)
Time: 21:08:35
(UTC-05:00)

Tiangong 2 - Visible Passes

Search period start: 22 March 2019 00:00
Search period end: 01 April 2019 00:00
Orbit: 380 x 390 km, 42.8° (Epoch: 22 March)

Date Brightness Start Highest point End Pass type
(mag) Time Alt. Az. Time Alt. Az. Time Alt. Az.
22 Mar 0.9 05:51:54 59° W 05:52:22 76° SSW 05:55:33 10° ESE visible
23 Mar 4.2 04:55:32 14° E 04:55:32 14° E 04:56:02 10° ESE visible
23 Mar 2.4 06:27:48 16° WSW 06:29:27 23° SSW 06:32:03 10° SSE visible
24 Mar 2.9 05:31:36 23° SSE 05:31:36 23° SSE 05:33:06 10° SE visible
25 Mar 3.4 06:07:50 12° SSW 06:07:50 12° SSW 06:08:30 10° S visible
28 Mar 3.6 21:15:50 10° SSW 21:16:23 14° SSW 21:16:23 14° SSW visible
29 Mar 2.9 20:17:14 10° S 20:19:14 16° SE 20:20:31 13° ESE visible
29 Mar 4.1 21:52:31 10° WSW 21:52:47 12° WSW 21:52:47 12° WSW visible
30 Mar 1.2 20:53:06 10° SW 20:56:09 52° SSE 20:56:42 44° ESE visible
31 Mar 2.1 21:30:14 10° W 21:32:41 45° WNW 21:32:41 45° WNW visible
